Regional Weather Roundup
Issued by NWS Goodland, KS

Home | Current Version | Previous Version | Graphics & Text | Print | Product List | Glossary On
Versions: 1 2 3 4 5 6 7 8 9 10 11 12 13 14 15 16 17 18 19 20 21 22 23 24 25 26 27 28 29 30 31 32 33 34 35 36 37 38 39 40 41 42 43 44 45 46 47 48 49 50
000
ASUS43 KGLD 261808
RWRGLD

GOODLAND FORECAST AREA HOURLY WEATHER ROUNDUP
NATIONAL WEATHER SERVICE GOODLAND KS
1200 PM MDT THU MAY 26 2016

...OFFICIAL OBSERVATIONS...

CITY           SKY/WX    TMP DP  RH WIND       PRES   REMARKS
GOODLAND KS    MOSUNNY   70  53  54 NE22G29   29.84F
HILL CITY KS   CLOUDY    75  64  68 E12       29.80F
IMPERIAL NEB   SUNNY     72  47  40 E20       29.87F
MCCOOK NEB     SUNNY     74  54  49 NE20      29.84F
AKRON CO       CLOUDY    68  41  37 E18       29.91F
BURLINGTON CO  PTSUNNY   73  48  41 E22G28    29.86F
LIMON CO       MOSUNNY   66  46  48 E15       29.91F
$$

...UNOFFICIAL OBSERVATIONS...

CITY           SKY/WX    TMP DP  RH WIND       PRES   REMARKS
GOVE KS          N/A     72  32  23 MISG        N/A
LENORA KS        N/A     72  32  23 MISG        N/A
SHARON SPRINGS   N/A     68  60  74 NE18        N/A
KIT CARSON CO    N/A     70  55  58 MISG        N/A
YUMA CO          N/A     70  45  40 E12G22      N/A
$$



USA.gov is the U.S. government's official web portal to all federal, state and local government web resources and services.